Change the Weather History Date:

Thursday, October 10, 2013

  Actual Average Record
Temperature  
Mean Temperature 54 °F -  
Max Temperature 73 °F 58 °F 81 °F (2010)
Min Temperature 35 °F 41 °F 22 °F (2014)
Degree Days  
Heating Degree Days 11    
Growing Degree Days 4 (Base 50)    
Moisture  
Dew Point 40 °F    
Average Humidity 93    
Maximum Humidity 100    
Minimum Humidity 38    
Precipitation  
Precipitation 0.00 in - - ()
Sea Level Pressure  
Sea Level Pressure 30.12 in    
Wind  
Wind Speed 4 mph (ESE)    
Max Wind Speed 10 mph    
Max Gust Speed 16 mph    
Visibility 6 miles    
Events      
Averages and records for this station are not official NWS values.
T = Trace of Precipitation, MM = Missing Value Source: NWS Daily Summary

Daily Weather History Graph

Daily Weather History Graph

Search for Another Location

Airport or City:

Trip Planner

Search our weather history database for the weather conditions in past years. The results will help you decide how hot, cold, wet, or windy it might be!

Date:

Astronomy

Oct. 10, 2013 Rise Set
Actual Time 7:09 AM CDT 6:25 PM CDT
Civil Twilight 6:40 AM CDT 6:54 PM CDT
Nautical Twilight 6:07 AM CDT 7:27 PM CDT
Astronomical Twilight 5:33 AM CDT 8:00 PM CDT
Moon 1:09 PM CDT (10/10) 10:56 PM CDT (10/10)
Length of Visible Light 12h 13m
Length of Day
11h 15m
Waxing Crescent, 36% of the Moon is Illuminated
Oct 10
Waxing Crescent
Oct 11
First Quarter
Oct 18
Full
Oct 26
Last Quarter
Nov 3
New

Hourly Weather History & Observations

Time (CDT) Temp. Windchill Dew Point Humidity Pressure Visibility Wind Dir Wind Speed Gust Speed Precip Events Conditions
12:33 AM 41.0 °F 38.0 °F 41.0 °F 100% 30.13 in 3.0 mi SE 4.6 mph - N/A   Clear
12:38 AM 41.0 °F 38.0 °F 41.0 °F 100% 30.13 in 2.5 mi ESE 4.6 mph - N/A   Clear
12:43 AM 41.0 °F 37.1 °F 41.0 °F 100% 30.12 in 5.0 mi ESE 5.8 mph - N/A   Clear
12:48 AM 39.2 °F 35.0 °F 39.2 °F 100% 30.13 in 6.0 mi SE 5.8 mph - N/A   Clear
12:58 AM 41.2 °F 38.2 °F 41.2 °F 100% 30.14 in 10.0 mi SSE 4.6 mph - N/A   Clear
1:18 AM 39.2 °F 35.9 °F 39.2 °F 100% 30.12 in 6.0 mi SE 4.6 mph - N/A   Clear
1:28 AM 39.2 °F 35.9 °F 39.2 °F 100% 30.12 in 1.2 mi SE 4.6 mph - N/A   Clear
1:33 AM 39.2 °F 35.0 °F 39.2 °F 100% 30.12 in 1.0 mi SE 5.8 mph - N/A   Clear
1:38 AM 39.2 °F 35.0 °F 39.2 °F 100% 30.12 in 2.0 mi SE 5.8 mph - N/A   Clear
1:43 AM 39.2 °F 35.0 °F 39.2 °F 100% 30.12 in 4.0 mi SE 5.8 mph - N/A   Clear
1:48 AM 39.2 °F 35.9 °F 39.2 °F 100% 30.12 in 10.0 mi SE 4.6 mph - N/A   Clear
1:58 AM 37.6 °F 34.0 °F 37.6 °F 100% 30.15 in 10.0 mi SSE 4.6 mph - N/A   Clear
2:18 AM 37.4 °F 34.9 °F 37.4 °F 100% 30.13 in 5.0 mi East 3.5 mph - N/A   Clear
2:33 AM 37.4 °F - 37.4 °F 100% 30.12 in 3.0 mi ENE 1.2 mph - N/A   Clear
2:38 AM 39.2 °F - 39.2 °F 100% 30.12 in 2.0 mi ENE 2.3 mph - N/A   Clear
2:53 AM 37.4 °F - 37.4 °F 100% 30.12 in 2.5 mi ENE 1.2 mph - N/A   Clear
2:58 AM 37.4 °F - 37.4 °F 100% 30.14 in 2.0 mi East 2.3 mph - N/A   Clear
3:03 AM 35.6 °F - 35.6 °F 100% 30.12 in 1.0 mi NE 2.3 mph - N/A   Clear
3:08 AM 37.4 °F - 37.4 °F 100% 30.12 in 1.0 mi NE 2.3 mph - N/A   Clear
3:13 AM 37.4 °F - 37.4 °F 100% 30.12 in 1.8 mi NE 1.2 mph - N/A   Clear
3:18 AM 37.4 °F - 37.4 °F 100% 30.12 in 4.0 mi NE 1.2 mph - N/A   Clear
3:23 AM 37.4 °F - 37.4 °F 100% 30.12 in 4.0 mi Calm Calm - N/A   Clear
3:33 AM 37.4 °F - 37.4 °F 100% 30.12 in 3.0 mi NE 1.2 mph - N/A   Clear
3:38 AM 37.4 °F - 37.4 °F 100% 30.12 in 1.8 mi East 2.3 mph - N/A   Clear
3:43 AM 37.4 °F - 37.4 °F 100% 30.12 in 1.2 mi East 2.3 mph - N/A   Clear
3:48 AM 37.4 °F - 37.4 °F 100% 30.12 in 1.0 mi Calm Calm - N/A   Clear
3:58 AM 35.6 °F - 35.6 °F 100% 30.14 in 1.2 mi East 1.2 mph - N/A   Clear
4:03 AM 37.4 °F - 37.4 °F 100% 30.12 in 1.5 mi East 2.3 mph - N/A   Clear
4:08 AM 35.6 °F - 35.6 °F 100% 30.12 in 0.8 mi East 2.3 mph - N/A   Clear
4:13 AM 37.4 °F 34.9 °F 37.4 °F 100% 30.12 in 1.0 mi East 3.5 mph - N/A   Clear
4:18 AM 37.4 °F - 37.4 °F 100% 30.12 in 1.2 mi ENE 2.3 mph - N/A   Clear
4:23 AM 37.4 °F - 37.4 °F 100% 30.12 in 1.0 mi NE 2.3 mph - N/A   Clear
4:28 AM 37.4 °F - 37.4 °F 100% 30.13 in 1.5 mi Calm Calm - N/A   Clear
4:33 AM 37.4 °F - 37.4 °F 100% 30.13 in 3.0 mi Calm Calm - N/A   Clear
4:38 AM 37.4 °F - 37.4 °F 100% 30.13 in 2.0 mi Calm Calm - N/A   Clear
4:48 AM 35.6 °F - 35.6 °F 100% 30.14 in 1.2 mi Calm Calm - N/A   Clear
4:53 AM 35.6 °F - 35.6 °F 100% 30.14 in 1.5 mi Calm Calm - N/A   Clear
4:58 AM 37.4 °F - 37.4 °F 100% 30.16 in 4.0 mi Calm Calm - N/A   Clear
5:03 AM 37.4 °F - 37.4 °F 100% 30.14 in 10.0 mi Calm Calm - N/A   Clear
5:43 AM 37.4 °F 33.8 °F 37.4 °F 100% 30.14 in 9.0 mi East 4.6 mph - N/A   Clear
5:48 AM 37.4 °F 33.8 °F 37.4 °F 100% 30.14 in 10.0 mi East 4.6 mph - N/A   Clear
5:53 AM 35.6 °F 32.8 °F 35.6 °F 100% 30.14 in 7.0 mi East 3.5 mph - N/A   Clear
5:58 AM 35.6 °F 32.8 °F 35.6 °F 100% 30.16 in 6.0 mi East 3.5 mph - N/A   Clear
6:13 AM 35.6 °F 32.8 °F 35.6 °F 100% 30.14 in 8.0 mi East 3.5 mph - N/A   Clear
6:23 AM 35.6 °F 32.8 °F 35.6 °F 100% 30.14 in 10.0 mi East 3.5 mph - N/A   Clear
6:58 AM 37.4 °F 32.8 °F 37.4 °F 100% 30.16 in 10.0 mi East 5.8 mph - N/A   Scattered Clouds
7:58 AM 41.0 °F - 41.0 °F 100% 30.17 in 10.0 mi Calm Calm - N/A   Mostly Cloudy
8:58 AM 48.2 °F - 48.2 °F 100% 30.17 in 10.0 mi East 2.3 mph - N/A   Mostly Cloudy
9:58 AM 57.2 °F - 50.0 °F 77% 30.17 in 10.0 mi SE 4.6 mph - N/A   Mostly Cloudy
10:58 AM 62.6 °F - 51.8 °F 68% 30.15 in 10.0 mi SSE 4.6 mph - N/A   Mostly Cloudy
11:58 AM 68.0 °F - 50.0 °F 52% 30.13 in 10.0 mi SE 6.9 mph - N/A   Mostly Cloudy
12:58 PM 69.8 °F - 48.2 °F 46% 30.10 in 10.0 mi SSE 8.1 mph - N/A   Mostly Cloudy
1:58 PM 71.6 °F - 48.2 °F 43% 30.09 in 10.0 mi SSE 6.9 mph - N/A   Mostly Cloudy
2:55 PM 73.4 °F - 46.4 °F 38% 30.07 in 10.0 mi South 10.4 mph - N/A   Scattered Clouds
3:58 PM 72.7 °F - 47.7 °F 41% 30.06 in 10.0 mi SSE 10.4 mph 16.1 mph N/A   Clear
4:58 PM 72.1 °F - 49.3 °F 44% 30.05 in 10.0 mi SSE 6.9 mph - N/A   Clear
5:58 PM 67.6 °F - 49.8 °F 53% 30.05 in 10.0 mi SE 5.8 mph - N/A   Clear
6:58 PM 53.1 °F - 48.0 °F 83% 30.05 in 10.0 mi SE 8.1 mph - N/A   Clear
7:58 PM 49.6 °F - 48.7 °F 97% 30.05 in 10.0 mi SE 3.5 mph - N/A   Clear
8:58 PM 47.8 °F - 47.1 °F 97% 30.04 in 10.0 mi Calm Calm - N/A   Clear
9:58 PM 46.4 °F - 46.4 °F 100% 30.04 in 10.0 mi Variable 1.2 mph - N/A   Clear
10:58 PM 44.6 °F - 44.6 °F 100% 30.04 in 7.0 mi Calm Calm - N/A   Clear
11:58 PM 43.7 °F 39.7 °F 43.7 °F 100% 30.04 in 10.0 mi SE 6.9 mph - N/A   Clear